Location: Iowa City
(41.6610°N, 91.5300°W)
Time: 12:42:59
(UTC-05:00)

ISS - Visible Passes

Search period start: 18 September 2014 00:00
Search period end: 28 September 2014 00:00
Orbit: 414 x 417 km, 51.6° (Epoch: 18 September)

Date Brightness Start Highest point End Pass type
(mag) Time Alt. Az. Time Alt. Az. Time Alt. Az.
18 Sep 0.1 03:56:04 12° ENE 03:56:04 12° ENE 03:56:23 10° ENE visible
18 Sep -1.6 05:28:57 20° NW 05:30:03 23° NNW 05:32:49 10° NE visible
19 Sep -1.4 04:42:10 25° N 04:42:10 25° N 04:44:09 10° NE visible
19 Sep -0.9 06:16:34 10° NW 06:18:36 15° N 06:20:39 10° NNE visible
20 Sep 0.3 03:55:19 11° NE 03:55:19 11° NE 03:55:27 10° NE visible
20 Sep -1.0 05:28:11 14° NW 05:29:32 17° N 05:31:47 10° NNE visible
21 Sep -0.9 04:41:18 18° N 04:41:18 18° N 04:42:59 10° NNE visible
21 Sep -0.7 06:16:04 10° NNW 06:18:07 15° N 06:20:09 10° NE visible
22 Sep -0.7 05:27:15 11° NNW 05:28:58 15° N 05:30:56 10° NE visible
23 Sep -0.6 04:40:18 15° N 04:40:18 15° N 04:41:51 10° NNE visible
23 Sep -0.9 06:14:58 10° NNW 06:17:26 19° NNE 06:19:54 10° ENE visible
24 Sep -0.7 05:26:14 11° NNW 05:28:15 16° N 05:30:26 10° NE visible
25 Sep -0.5 04:39:17 15° N 04:39:17 15° N 04:41:00 10° NE visible
25 Sep -1.5 06:13:31 10° NW 06:16:30 29° NNE 06:19:28 10° E visible
26 Sep -1.1 05:25:15 14° NNW 05:27:18 22° NNE 05:29:59 10° ENE visible
27 Sep -0.7 04:38:24 18° NNE 04:38:24 18° NNE 04:40:25 10° ENE visible
27 Sep -2.8 06:11:56 10° NW 06:15:14 62° NNE 06:18:32 10° ESE visible
